| time (UTC) | temp C | wind direction | speed KPH | gust KPH | rain 1hr cm | rain 24hr cm | rain mn cm | humidity % | barometer mb |
| 20260508115501 | 10 | 338 | 38.6 | 57.9 | 0.08 | 1.98 | 0.71 | 98 | 998.1 |
| 20260508115002 | 11 | 210 | 37.0 | 54.7 | 0.10 | 1.98 | 0.71 | 98 | 998.0 |
| 20260508114501 | 11 | 308 | 38.6 | 67.6 | 0.10 | 1.98 | 0.71 | 98 | 998.1 |
| 20260508114003 | 11 | 182 | 38.6 | 67.6 | 0.13 | 1.98 | 0.71 | 98 | 997.9 |
| 20260508113502 | 11 | 165 | 37.0 | 59.5 | 0.13 | 1.98 | 0.71 | 99 | 997.9 |
| 20260508113002 | 11 | 179 | 37.0 | 59.5 | 0.10 | 1.96 | 0.71 | 98 | 997.6 |
| 20260508112501 | 11 | 311 | 38.6 | 53.1 | 0.10 | 1.96 | 0.71 | 98 | 997.6 |
| 20260508111501 | 11 | 331 | 45.1 | 67.6 | 0.10 | 1.96 | 0.71 | 98 | 997.3 |
| 20260508111002 | 11 | 274 | 45.1 | 70.8 | 0.08 | 1.93 | 0.69 | 98 | 997.1 |
| 20260508110007 | 11 | 165 | 49.9 | 70.8 | 0.10 | 1.93 | 0.66 | 98 | 997.0 |
| 20260508105002 | 11 | 335 | 43.5 | 72.4 | 0.05 | 2.34 | 0.61 | 98 | 996.9 |
| 20260508104002 | 11 | 320 | 45.1 | 67.6 | 0.08 | 2.31 | 0.61 | 98 | 996.7 |
| 20260508103002 | 11 | 195 | 43.5 | 64.4 | 0.08 | 2.31 | 0.61 | 98 | 996.6 |
| 20260508102501 | 11 | 310 | 48.3 | 70.8 | 0.08 | 2.31 | 0.61 | 98 | 996.5 |
| 20260508101002 | 11 | 218 | 51.5 | 75.6 | 0.08 | 2.31 | 0.61 | 98 | 996.1 |
| 20260508100501 | 12 | 185 | 49.9 | 67.6 | 0.05 | 2.31 | 0.58 | 98 | 996.1 |
| 20260508100010 | 12 | 290 | 46.7 | 69.2 | 0.05 | 2.29 | 0.56 | 98 | 996.1 |
| 20260508095501 | 12 | 175 | 46.7 | 70.8 | 0.05 | 2.51 | 0.56 | 97 | 996.0 |
| 20260508095002 | 12 | 169 | 48.3 | 70.8 | 0.05 | 2.51 | 0.56 | 97 | 995.9 |
| 20260508094501 | 12 | 326 | 49.9 | 69.2 | 0.03 | 2.49 | 0.53 | 97 | 995.7 |
| 20260508094001 | 12 | 329 | 49.9 | 69.2 | 0.00 | 2.49 | 0.51 | 97 | 995.5 |
| 20260508093002 | 12 | 309 | 53.1 | 72.4 | 0.05 | 2.49 | 0.51 | 98 | 995.5 |
| 20260508092002 | 12 | 262 | 49.9 | 72.4 | 0.05 | 2.49 | 0.51 | 98 | 995.2 |
| 20260508091501 | 12 | 168 | 49.9 | 70.8 | 0.05 | 2.49 | 0.51 | 98 | 995.0 |
| 20260508091002 | 12 | 171 | 48.3 | 66.0 | 0.13 | 2.49 | 0.51 | 98 | 995.0 |
| 20260508090502 | 12 | 292 | 48.3 | 66.0 | 0.18 | 2.49 | 0.51 | 98 | 995.0 |
| 20260508090009 | 12 | 316 | 49.9 | 74.0 | 0.25 | 2.49 | 0.51 | 98 | 994.9 |
| 20260508085502 | 12 | 199 | 48.3 | 69.2 | 0.30 | 2.59 | 0.51 | 97 | 994.8 |
| 20260508085002 | 12 | 291 | 48.3 | 72.4 | 0.33 | 2.59 | 0.51 | 97 | 994.8 |
| 20260508084502 | 12 | 238 | 53.1 | 72.4 | 0.33 | 2.59 | 0.51 | 96 | 994.8 |
| 20260508084002 | 13 | 336 | 53.1 | 69.2 | 0.33 | 2.59 | 0.51 | 95 | 994.7 |
| 20260508083501 | 13 | 318 | 45.1 | 69.2 | 0.30 | 2.54 | 0.48 | 94 | 994.7 |
| 20260508083002 | 13 | 206 | 41.8 | 72.4 | 0.28 | 2.51 | 0.46 | 94 | 994.6 |
| 20260508082501 | 13 | 162 | 40.2 | 72.4 | 0.28 | 2.51 | 0.46 | 95 | 994.7 |
| 20260508082002 | 13 | 321 | 24.1 | 70.8 | 0.28 | 2.51 | 0.46 | 96 | 994.6 |
| 20260508081501 | 12 | 341 | 14.5 | 30.6 | 0.28 | 2.51 | 0.46 | 96 | 994.7 |
| 20260508081002 | 12 | 296 | 11.3 | 19.3 | 0.20 | 2.44 | 0.38 | 96 | 994.7 |
| 20260508080005 | 12 | 316 | 17.7 | 29.0 | 0.08 | 2.31 | 0.25 | 96 | 994.7 |
| 20260508075500 | 12 | 336 | 22.5 | 32.2 | 0.05 | 3.96 | 0.23 | 95 | 994.6 |
| 20260508075002 | 12 | 344 | 24.1 | 33.8 | 0.03 | 3.94 | 0.20 | 95 | 994.6 |
| 20260508074500 | 12 | 344 | 22.5 | 33.8 | 0.00 | 3.91 | 0.18 | 95 | 994.7 |
| 20260508074001 | 12 | 338 | 22.5 | 33.8 | 0.00 | 3.91 | 0.18 | 95 | 994.7 |
| 20260508073500 | 12 | 341 | 20.9 | 33.8 | 0.00 | 3.91 | 0.18 | 95 | 994.7 |
| 20260508072500 | 12 | 341 | 20.9 | 30.6 | 0.00 | 3.91 | 0.18 | 94 | 994.9 |
| 20260508072001 | 12 | 340 | 20.9 | 29.0 | 0.00 | 3.91 | 0.18 | 94 | 995.1 |
| 20260508071500 | 12 | 341 | 20.9 | 32.2 | 0.00 | 3.91 | 0.18 | 94 | 995.4 |
| 20260508071001 | 12 | 338 | 20.9 | 32.2 | 0.00 | 3.91 | 0.18 | 94 | 995.5 |
| 20260508070501 | 12 | 336 | 24.1 | 33.8 | 0.00 | 3.91 | 0.18 | 93 | 995.7 |
| 20260508070005 | 12 | 343 | 24.1 | 33.8 | 0.00 | 3.91 | 0.18 | 94 | 995.7 |
| 20260508065501 | 12 | 342 | 22.5 | 32.2 | 0.00 | 4.06 | 0.18 | 94 | 995.9 |
| 20260508064501 | 12 | 341 | 22.5 | 32.2 | 0.08 | 4.06 | 0.18 | 93 | 996.1 |
| 20260508064002 | 12 | 339 | 20.9 | 32.2 | 0.10 | 4.06 | 0.18 | 94 | 996.2 |
| 20260508063501 | 12 | 337 | 19.3 | 32.2 | 0.10 | 4.06 | 0.18 | 93 | 996.5 |
| 20260508063002 | 12 | 340 | 19.3 | 32.2 | 0.13 | 4.06 | 0.18 | 94 | 996.6 |
| 20260508062501 | 12 | 328 | 20.9 | 30.6 | 0.15 | 4.06 | 0.18 | 94 | 996.7 |
| 20260508061501 | 12 | 338 | 17.7 | 29.0 | 0.15 | 4.06 | 0.18 | 95 | 996.9 |
| 20260508061002 | 12 | 333 | 16.1 | 24.1 | 0.15 | 4.06 | 0.18 | 94 | 997.0 |
| 20260508060501 | 12 | 340 | 14.5 | 22.5 | 0.18 | 4.06 | 0.18 | 94 | 997.2 |
| 20260508055500 | 12 | 337 | 20.9 | 33.8 | 0.15 | 4.04 | 0.15 | 94 | 997.2 |
| 20260508055001 | 12 | 334 | 22.5 | 33.8 | 0.13 | 3.99 | 0.13 | 94 | 997.4 |
| 20260508054500 | 12 | 338 | 22.5 | 32.2 | 0.10 | 3.99 | 0.10 | 93 | 997.3 |
| 20260508054001 | 12 | 342 | 22.5 | 30.6 | 0.08 | 3.96 | 0.08 | 93 | 997.2 |
| 20260508053500 | 13 | 336 | 24.1 | 33.8 | 0.08 | 3.96 | 0.08 | 93 | 997.2 |
| 20260508053001 | 13 | 334 | 24.1 | 35.4 | 0.05 | 3.94 | 0.05 | 92 | 997.1 |
| 20260508052501 | 13 | 335 | 25.7 | 40.2 | 0.05 | 3.91 | 0.05 | 92 | 997.1 |
| 20260508052001 | 13 | 308 | 27.4 | 40.2 | 0.05 | 3.91 | 0.05 | 92 | 997.1 |
| 20260508051500 | 13 | 336 | 30.6 | 41.8 | 0.03 | 3.91 | 0.03 | 92 | 997.1 |
| 20260508051003 | 13 | 323 | 30.6 | 41.8 | 0.03 | 3.91 | 0.03 | 91 | 996.9 |
| 20260508050500 | 13 | 319 | 29.0 | 41.8 | 0.00 | 3.89 | 0.00 | 91 | 996.9 |
| 20260508045500 | 13 | 329 | 27.4 | 40.2 | 0.00 | 3.89 | 0.00 | 89 | 996.9 |
| 20260508045001 | 13 | 335 | 27.4 | 40.2 | 0.00 | 3.89 | 0.00 | 88 | 997.1 |
| 20260508044500 | 13 | 338 | 25.7 | 37.0 | 0.00 | 3.89 | 0.00 | 88 | 997.2 |
| 20260508044001 | 13 | 324 | 24.1 | 35.4 | 0.00 | 3.89 | 0.00 | 88 | 997.2 |
| 20260508043500 | 13 | 338 | 22.5 | 35.4 | 0.00 | 3.89 | 0.00 | 89 | 997.2 |
| 20260508043002 | 13 | 338 | 22.5 | 33.8 | 0.00 | 3.89 | 0.00 | 89 | 997.1 |
| 20260508041500 | 13 | 335 | 22.5 | 32.2 | 0.00 | 3.89 | 0.00 | 89 | 997.6 |
| 20260508041001 | 14 | 328 | 20.9 | 30.6 | 0.00 | 3.89 | 0.00 | 88 | 997.6 |
| 20260508040500 | 14 | 336 | 22.5 | 45.1 | 0.00 | 3.89 | 0.00 | 87 | 997.5 |
| 20260508040005 | 15 | 331 | 29.0 | 49.9 | 0.00 | 3.89 | 0.00 | 85 | 997.6 |
| 20260508035500 | 15 | 180 | 33.8 | 49.9 | 0.00 | 3.89 | 0.00 | 84 | 997.6 |
| 20260508035002 | 15 | 312 | 32.2 | 48.3 | 0.00 | 3.89 | 0.00 | 83 | 997.5 |
| 20260508034500 | 15 | 272 | 32.2 | 48.3 | 0.00 | 3.89 | 0.00 | 83 | 997.3 |
| 20260508034001 | 15 | 319 | 33.8 | 46.7 | 0.00 | 3.89 | 0.00 | 83 | 997.1 |
| 20260508033500 | 15 | 286 | 35.4 | 48.3 | 0.00 | 3.89 | 0.00 | 83 | 997.1 |
| 20260508033001 | 15 | 165 | 35.4 | 49.9 | 0.00 | 3.89 | 0.00 | 83 | 997.1 |
| 20260508032500 | 15 | 282 | 33.8 | 49.9 | 0.00 | 3.89 | 0.00 | 83 | 996.9 |
| 20260508032001 | 15 | 265 | 25.7 | 45.1 | 0.00 | 3.89 | 0.00 | 83 | 996.9 |
| 20260508031500 | 15 | 328 | 20.9 | 41.8 | 0.00 | 3.89 | 0.00 | 85 | 996.9 |
| 20260508031001 | 15 | 180 | 20.9 | 41.8 | 0.00 | 3.89 | 0.00 | 85 | 996.6 |
| 20260508030008 | 15 | 175 | 24.1 | 40.2 | 0.00 | 3.89 | 0.00 | 84 | 996.4 |
| 20260508025503 | 15 | 288 | 25.7 | 40.2 | 0.00 | 3.89 | 3.89 | 85 | 996.3 |
| 20260508025003 | 15 | 308 | 24.1 | 38.6 | 0.00 | 3.89 | 3.89 | 85 | 996.8 |
| 20260508024003 | 15 | 176 | 25.7 | 38.6 | 0.00 | 3.89 | 3.89 | 87 | 997.5 |
| 20260508023502 | 15 | 169 | 25.7 | 41.8 | 0.00 | 3.89 | 3.89 | 86 | 997.1 |
| 20260508023005 | 15 | 163 | 25.7 | 41.8 | 0.00 | 3.89 | 3.89 | 87 | 997.3 |
| 20260508022502 | 15 | 258 | 25.7 | 43.5 | 0.00 | 3.89 | 3.89 | 85 | 997.3 |
| 20260508022003 | 15 | 170 | 25.7 | 45.1 | 0.00 | 3.89 | 3.89 | 86 | 997.2 |
| 20260508021504 | 15 | 184 | 27.4 | 45.1 | 0.00 | 3.89 | 3.89 | 85 | 997.1 |
| 20260508021005 | 15 | 208 | 24.1 | 38.6 | 0.00 | 3.89 | 3.89 | 86 | 997.1 |
| 20260508020500 | 15 | 180 | 24.1 | 37.0 | 0.00 | 3.89 | 3.89 | 87 | 997.0 |
| 20260508015005 | 15 | 162 | 25.7 | 41.8 | 0.00 | 3.89 | 3.89 | 87 | 997.2 |
| 20260508014005 | 15 | 340 | 25.7 | 45.1 | 0.00 | 3.89 | 3.89 | 86 | 997.2 |
| 20260508013503 | 15 | 172 | 27.4 | 49.9 | 0.00 | 3.89 | 3.89 | 87 | 997.2 |
| 20260508013008 | 15 | 196 | 27.4 | 49.9 | 0.00 | 3.89 | 3.89 | 88 | 997.2 |
| 20260508012503 | 15 | 173 | 24.1 | 41.8 | 0.00 | 3.89 | 3.89 | 89 | 997.5 |
| 20260508012006 | 15 | 166 | 22.5 | 40.2 | 0.00 | 3.89 | 3.89 | 88 | 997.6 |
| 20260508011502 | 15 | 336 | 24.1 | 43.5 | 0.00 | 3.89 | 3.89 | 88 | 997.9 |
| 20260508010505 | 15 | 178 | 33.8 | 54.7 | 0.00 | 3.89 | 3.89 | 88 | 998.2 |
| 20260508010011 | 15 | 334 | 38.6 | 54.7 | 0.00 | 3.89 | 3.89 | 89 | 998.5 |
| 20260508005503 | 15 | 326 | 40.2 | 56.3 | 0.00 | 3.91 | 3.89 | 89 | 998.8 |
| 20260508005009 | 15 | 316 | 38.6 | 56.3 | 0.00 | 3.91 | 3.89 | 89 | 999.0 |
| 20260508003503 | 15 | 293 | 29.0 | 51.5 | 0.00 | 3.91 | 3.89 | 91 | 998.7 |
| 20260508002503 | 16 | 161 | 25.7 | 41.8 | 0.00 | 3.91 | 3.89 | 92 | 998.0 |
| 20260508002010 | 15 | 198 | 25.7 | 40.2 | 0.00 | 3.91 | 3.89 | 91 | 997.8 |
| 20260508001503 | 16 | 207 | 24.1 | 40.2 | 0.00 | 3.91 | 3.89 | 91 | 998.1 |
| 20260508000503 | 16 | 334 | 27.4 | 46.7 | 0.00 | 3.91 | 3.89 | 91 | 998.2 |
| 20260507235501 | 16 | 162 | 35.4 | 57.9 | 0.00 | 3.91 | 3.89 | 91 | 998.6 |
| 20260507234503 | 16 | 319 | 45.1 | 59.5 | 0.00 | 3.91 | 3.89 | 91 | 998.7 |
| 20260507233502 | 16 | 230 | 40.2 | 56.3 | 0.00 | 3.91 | 3.89 | 92 | 998.9 |
| 20260507233002 | 16 | 171 | 35.4 | 51.5 | 0.00 | 3.91 | 3.89 | 93 | 999.0 |
| 20260507232503 | 16 | 241 | 33.8 | 46.7 | 0.00 | 3.91 | 3.89 | 92 | 999.1 |
| 20260507231501 | 16 | 209 | 32.2 | 43.5 | 0.00 | 3.91 | 3.89 | 91 | 999.4 |
| 20260507225503 | 16 | 336 | 20.9 | 40.2 | 0.00 | 3.91 | 3.89 | 92 | 999.2 |
| 20260507225003 | 16 | 330 | 17.7 | 30.6 | 0.00 | 3.91 | 3.89 | 92 | 999.1 |
| 20260507224502 | 16 | 170 | 20.9 | 33.8 | 0.00 | 3.91 | 3.89 | 92 | 998.9 |
| 20260507224006 | 16 | 170 | 20.9 | 33.8 | 0.00 | 3.91 | 3.89 | 91 | 999.0 |
| 20260507223501 | 16 | 196 | 19.3 | 33.8 | 0.00 | 3.91 | 3.89 | 92 | 999.0 |
| 20260507222504 | 16 | 173 | 20.9 | 33.8 | 0.00 | 3.91 | 3.89 | 91 | 998.9 |
| 20260507222003 | 16 | 222 | 20.9 | 32.2 | 0.00 | 3.91 | 3.89 | 92 | 998.8 |
| 20260507221502 | 16 | 331 | 19.3 | 32.2 | 0.00 | 3.91 | 3.89 | 92 | 998.8 |
| 20260507221003 | 16 | 308 | 17.7 | 32.2 | 0.00 | 3.91 | 3.89 | 93 | 998.7 |
| 20260507215503 | 16 | 199 | 20.9 | 35.4 | 0.00 | 3.91 | 3.89 | 93 | 998.0 |
| 20260507214502 | 16 | 235 | 17.7 | 30.6 | 0.00 | 3.91 | 3.89 | 96 | 997.7 |
| 20260507214003 | 16 | 326 | 16.1 | 27.4 | 0.00 | 3.91 | 3.89 | 96 | 997.6 |
| 20260507213501 | 16 | 204 | 16.1 | 27.4 | 0.00 | 3.91 | 3.89 | 96 | 997.6 |
| 20260507213003 | 16 | 171 | 14.5 | 27.4 | 0.00 | 3.91 | 3.89 | 97 | 997.8 |
| 20260507212501 | 16 | 173 | 12.9 | 25.7 | 0.00 | 3.91 | 3.89 | 98 | 998.1 |
| 20260507212003 | 16 | 245 | 16.1 | 27.4 | 0.00 | 3.91 | 3.89 | 98 | 998.5 |
| 20260507211502 | 16 | 172 | 20.9 | 35.4 | 0.00 | 3.91 | 3.89 | 98 | 998.4 |
| 20260507211002 | 15 | 277 | 27.4 | 35.4 | 0.00 | 3.91 | 3.89 | 99 | 998.3 |
| 20260507210502 | 15 | 177 | 30.6 | 38.6 | 0.00 | 3.91 | 3.89 | 99 | 998.4 |
| 20260507210007 | 15 | 168 | 30.6 | 38.6 | 0.03 | 3.91 | 3.89 | 99 | 998.2 |
| 20260507205502 | 15 | 170 | 30.6 | 38.6 | 0.03 | 3.91 | 3.89 | 100 | 998.6 |
| 20260507204501 | 15 | 167 | 30.6 | 41.8 | 0.03 | 3.91 | 3.89 | 100 | 998.7 |
| 20260507204004 | 15 | 169 | 25.7 | 41.8 | 0.03 | 3.91 | 3.89 | 99 | 999.0 |
| 20260507203503 | 16 | 334 | 20.9 | 29.0 | 0.03 | 3.91 | 3.89 | 100 | 999.0 |
| 20260507203006 | 16 | 336 | 20.9 | 29.0 | 0.03 | 3.91 | 3.89 | 100 | 999.0 |
| 20260507202502 | 16 | 180 | 22.5 | 32.2 | 0.03 | 3.91 | 3.89 | 100 | 999.3 |
| 20260507202002 | 16 | 207 | 20.9 | 32.2 | 0.03 | 3.91 | 3.89 | 100 | 999.2 |
| 20260507201502 | 16 | 329 | 19.3 | 32.2 | 0.03 | 3.91 | 3.89 | 100 | 999.4 |
| 20260507201003 | 16 | 266 | 19.3 | 32.2 | 0.03 | 3.91 | 3.89 | 100 | 999.6 |
| 20260507200504 | 16 | 175 | 16.1 | 32.2 | 0.03 | 3.91 | 3.89 | 100 | 999.5 |
| 20260507200007 | 16 | 242 | 14.5 | 22.5 | 0.00 | 3.89 | 3.86 | 100 | 999.4 |
| 20260507195503 | 16 | 338 | 11.3 | 20.9 | 0.00 | 3.89 | 3.86 | 100 | 999.4 |
| 20260507195003 | 16 | 260 | 8.0 | 19.3 | 0.00 | 3.89 | 3.86 | 100 | 999.4 |
| 20260507194502 | 16 | 345 | 8.0 | 14.5 | 0.00 | 3.89 | 3.86 | 100 | 998.9 |
| 20260507194004 | 16 | 339 | 6.4 | 12.9 | 0.00 | 3.89 | 3.86 | 100 | 999.1 |
| 20260507193501 | 16 | 340 | 6.4 | 14.5 | 0.00 | 3.89 | 3.86 | 100 | 998.7 |
| 20260507193006 | 16 | 343 | 6.4 | 14.5 | 0.00 | 3.89 | 3.86 | 100 | 998.6 |
| 20260507192502 | 16 | 338 | 6.4 | 12.9 | 0.00 | 3.89 | 3.86 | 100 | 998.5 |
| 20260507192005 | 16 | 343 | 8.0 | 14.5 | 0.00 | 3.89 | 3.86 | 100 | 998.6 |
| 20260507191502 | 16 | 345 | 8.0 | 14.5 | 0.00 | 3.89 | 3.86 | 100 | 998.8 |
| 20260507191002 | 16 | 329 | 9.7 | 16.1 | 0.00 | 3.89 | 3.86 | 100 | 998.9 |
| 20260507190501 | 16 | 336 | 11.3 | 16.1 | 0.00 | 3.89 | 3.86 | 100 | 999.0 |
| 20260507190008 | 16 | 343 | 9.7 | 16.1 | 0.00 | 3.89 | 3.86 | 100 | 999.0 |
| 20260507185004 | 16 | 334 | 8.0 | 12.9 | 0.00 | 3.89 | 3.86 | 100 | 999.0 |
| 20260507184504 | 16 | 331 | 8.0 | 12.9 | 0.00 | 3.89 | 3.86 | 100 | 998.7 |
| 20260507183502 | 16 | 336 | 6.4 | 11.3 | 0.00 | 3.89 | 3.86 | 100 | 998.3 |
| 20260507181501 | 16 | 331 | 8.0 | 12.9 | 0.05 | 3.89 | 3.86 | 100 | 999.2 |
| 20260507181004 | 16 | 308 | 8.0 | 12.9 | 0.05 | 3.89 | 3.86 | 100 | 999.2 |
| 20260507180503 | 16 | 338 | 6.4 | 9.7 | 0.05 | 3.89 | 3.86 | 100 | 999.2 |
| 20260507180006 | 16 | 338 | 6.4 | 9.7 | 0.05 | 3.89 | 3.86 | 100 | 999.3 |
| 20260507175501 | 16 | 332 | 6.4 | 9.7 | 0.05 | 3.89 | 3.86 | 100 | 999.2 |
| 20260507175004 | 16 | 229 | 6.4 | 9.7 | 0.08 | 3.89 | 3.86 | 100 | 999.0 |
| 20260507174501 | 16 | 341 | 6.4 | 11.3 | 0.08 | 3.89 | 3.86 | 100 | 999.0 |
| 20260507174002 | 16 | 335 | 6.4 | 11.3 | 0.10 | 3.89 | 3.86 | 100 | 999.4 |
| 20260507173502 | 16 | 333 | 9.7 | 17.7 | 0.10 | 3.89 | 3.86 | 100 | 999.1 |
| 20260507173006 | 16 | 336 | 11.3 | 17.7 | 0.13 | 3.89 | 3.86 | 100 | 999.6 |
| 20260507172501 | 16 | 329 | 9.7 | 17.7 | 0.10 | 3.86 | 3.84 | 100 | 1000.0 |
| 20260507172003 | 16 | 336 | 6.4 | 14.5 | 0.10 | 3.84 | 3.81 | 100 | 1000.0 |
| 20260507171003 | 16 | 329 | 6.4 | 16.1 | 0.15 | 3.84 | 3.81 | 100 | 999.7 |
| 20260507170501 | 16 | 324 | 3.2 | 11.3 | 0.15 | 3.81 | 3.81 | 100 | 999.3 |
| 20260507165501 | 16 | 337 | 8.0 | 11.3 | 0.23 | 3.81 | 3.81 | 100 | 999.8 |
| 20260507165002 | 16 | 334 | 8.0 | 11.3 | 0.23 | 3.81 | 3.78 | 100 | 1000.0 |
| 20260507164502 | 16 | 336 | 8.0 | 11.3 | 0.23 | 3.81 | 3.78 | 100 | 1000.1 |
| 20260507164003 | 16 | 336 | 8.0 | 12.9 | 0.25 | 3.78 | 3.76 | 100 | 1000.0 |
| 20260507163503 | 16 | 317 | 8.0 | 12.9 | 0.30 | 3.78 | 3.76 | 100 | 1000.2 |
| 20260507163004 | 16 | 336 | 6.4 | 12.9 | 0.30 | 3.76 | 3.73 | 100 | 999.8 |
| 20260507162502 | 16 | 338 | 6.4 | 11.3 | 0.36 | 3.76 | 3.73 | 100 | 999.8 |
| 20260507162002 | 16 | 337 | 4.8 | 11.3 | 0.38 | 3.73 | 3.71 | 100 | 1000.0 |
| 20260507161502 | 16 | 341 | 3.2 | 8.0 | 0.38 | 3.71 | 3.71 | 99 | 999.7 |
| 20260507161002 | 16 | 343 | 6.4 | 14.5 | 0.38 | 3.71 | 3.68 | 100 | 999.6 |
| 20260507160503 | 16 | 331 | 9.7 | 14.5 | 0.38 | 3.68 | 3.66 | 99 | 1000.1 |
| 20260507155500 | 16 | 324 | 17.7 | 29.0 | 0.43 | 3.61 | 3.58 | 99 | 1001.2 |
| 20260507155001 | 16 | 329 | 19.3 | 30.6 | 0.43 | 3.58 | 3.56 | 99 | 1001.2 |
| 20260507154500 | 16 | 328 | 17.7 | 30.6 | 0.46 | 3.56 | 3.53 | 99 | 1001.4 |
| 20260507154003 | 16 | 316 | 16.1 | 25.7 | 0.43 | 3.53 | 3.51 | 99 | 1000.8 |
| 20260507153501 | 16 | 333 | 16.1 | 25.7 | 0.43 | 3.48 | 3.45 | 99 | 1000.7 |
| 20260507153003 | 16 | 335 | 17.7 | 25.7 | 0.41 | 3.43 | 3.43 | 99 | 1000.6 |
| 20260507152502 | 16 | 331 | 19.3 | 27.4 | 0.38 | 3.40 | 3.38 | 99 | 1001.0 |
| 20260507152004 | 16 | 338 | 22.5 | 35.4 | 0.36 | 3.35 | 3.33 | 99 | 1000.9 |
| 20260507151501 | 16 | 335 | 22.5 | 35.4 | 0.36 | 3.33 | 3.33 | 99 | 1001.0 |
| 20260507151003 | 16 | 338 | 20.9 | 35.4 | 0.33 | 3.33 | 3.30 | 99 | 1001.1 |
| 20260507150501 | 16 | 334 | 20.9 | 33.8 | 0.33 | 3.28 | 3.25 | 99 | 1001.1 |
| 20260507150009 | 16 | 275 | 22.5 | 35.4 | 0.30 | 3.25 | 3.23 | 99 | 1001.2 |
| 20260507145502 | 16 | 294 | 22.5 | 35.4 | 0.23 | 3.17 | 3.15 | 99 | 1001.7 |
| 20260507145003 | 16 | 329 | 24.1 | 38.6 | 0.20 | 3.15 | 3.12 | 99 | 1001.4 |
| 20260507144501 | 16 | 174 | 25.7 | 38.6 | 0.18 | 3.10 | 3.07 | 99 | 1001.3 |
| 20260507144003 | 16 | 334 | 29.0 | 43.5 | 0.15 | 3.07 | 3.05 | 99 | 1001.4 |
| 20260507143502 | 16 | 329 | 35.4 | 45.1 | 0.15 | 3.05 | 3.05 | 99 | 1001.5 |
| 20260507143003 | 16 | 163 | 35.4 | 48.3 | 0.13 | 3.05 | 3.02 | 99 | 1001.8 |
| 20260507142502 | 16 | 168 | 33.8 | 56.3 | 0.13 | 3.02 | 3.00 | 99 | 1002.0 |
| 20260507142003 | 16 | 183 | 29.0 | 56.3 | 0.10 | 3.00 | 2.97 | 99 | 1002.1 |
| 20260507141502 | 16 | 295 | 25.7 | 48.3 | 0.08 | 2.97 | 2.97 | 99 | 1002.1 |
| 20260507141003 | 16 | 320 | 24.1 | 41.8 | 0.08 | 2.97 | 2.97 | 99 | 1002.1 |
| 20260507140501 | 16 | 335 | 24.1 | 37.0 | 0.05 | 2.97 | 2.95 | 100 | 1001.4 |
| 20260507140007 | 16 | 337 | 24.1 | 38.6 | 0.05 | 2.95 | 2.92 | 100 | 1000.9 |
| 20260507135502 | 16 | 336 | 22.5 | 38.6 | 0.05 | 2.95 | 2.92 | 100 | 1000.6 |
| 20260507135002 | 16 | 338 | 17.7 | 33.8 | 0.05 | 2.95 | 2.92 | 99 | 1000.4 |
| 20260507134501 | 16 | 335 | 16.1 | 24.1 | 0.03 | 2.92 | 2.90 | 99 | 1000.3 |
| 20260507133502 | 16 | 336 | 14.5 | 25.7 | 0.05 | 2.92 | 2.90 | 99 | 1000.0 |
| 20260507133003 | 16 | 346 | 14.5 | 25.7 | 0.05 | 2.92 | 2.90 | 99 | 1000.2 |
| 20260507132501 | 16 | 341 | 16.1 | 25.7 | 0.03 | 2.90 | 2.87 | 99 | 1000.2 |
| 20260507132002 | 16 | 329 | 16.1 | 30.6 | 0.05 | 2.90 | 2.87 | 99 | 999.8 |
| 20260507131502 | 16 | 347 | 16.1 | 30.6 | 0.05 | 2.90 | 2.87 | 99 | 999.6 |
| 20260507131003 | 16 | 346 | 17.7 | 29.0 | 0.05 | 2.90 | 2.87 | 99 | 999.6 |
| 20260507130502 | 16 | 348 | 16.1 | 29.0 | 0.05 | 2.90 | 2.87 | 99 | 999.5 |
| 20260507130005 | 16 | 341 | 12.9 | 25.7 | 0.05 | 2.90 | 2.87 | 99 | 999.5 |
| 20260507125003 | 16 | 359 | 9.7 | 22.5 | 0.08 | 2.90 | 2.87 | 99 | 999.2 |
| 20260507124502 | 16 | 2 | 11.3 | 25.7 | 0.10 | 2.90 | 2.87 | 99 | 998.3 |
| 20260507124002 | 16 | 14 | 14.5 | 25.7 | 0.10 | 2.90 | 2.87 | 99 | 997.7 |
| 20260507123502 | 16 | 348 | 16.1 | 29.0 | 0.10 | 2.87 | 2.87 | 99 | 998.2 |
| 20260507122502 | 15 | 354 | 14.5 | 29.0 | 0.13 | 2.87 | 2.87 | 99 | 997.7 |
| 20260507122003 | 15 | 348 | 14.5 | 29.0 | 0.13 | 2.87 | 2.84 | 99 | 998.1 |
| 20260507121501 | 15 | 342 | 16.1 | 29.0 | 0.15 | 2.87 | 2.84 | 99 | 998.1 |
| 20260507121007 | 15 | 343 | 16.1 | 29.0 | 0.15 | 2.84 | 2.82 | 99 | 998.6 |
| 20260507120502 | 15 | 2 | 16.1 | 32.2 | 0.18 | 2.84 | 2.82 | 99 | 998.6 |
| 20260507120006 | 15 | 22 | 14.5 | 32.2 | 0.20 | 2.84 | 2.82 | 99 | 998.6 |